Location: El Limón
(10.3059°N, 67.6321°W)
Time: 14:23:42
(UTC+00:00)

Ariane H10-3 - Pass Details

Date: 14 April 2024
Orbit: 343 x 23443 km, 7.6° (Epoch: 27 May)

Event Time Altitude Azimuth Distance (km) Brightness Sun altitude
Exits shadow 09:08:53 14° 181° (S) 1,285 4.0 -18.0°
Drops below altitude 10° 09:10:10 10° 149° (SSE) 1,345 4.5 -17.7°
Sets 09:12:26 0° 116° (ESE) 2,116 6.2 -17.2°
